When you browse on this site, cookies collect data to enhance your experience and personalize the content and advertising you see.
Visit our Privacy Policy to learn more. By continuing to use the site, you agree to this use of cookies and data.
EN

Hourly Weather Shuvakish

Today, 11 August, Tuesday

Time Temperature Precipitation Wind Pressure Humidity
00:00 +12°C° 0.1 mm 5 mps 724 mmHg 96%
01:00 +12°C° 0.1 mm 5 mps 724 mmHg 95%
02:00 +12°C° 0.3 mm 5 mps 724 mmHg 95%
03:00 +12°C° 0.3 mm 5 mps 724 mmHg 95%
04:00 +12°C° 0.3 mm 5 mps 725 mmHg 95%
05:00 +12°C° 2.6 mm 5 mps 725 mmHg 96%
06:00 +10°C° 2.6 mm 5 mps 725 mmHg 96%
07:00 +10°C° 2.6 mm 5 mps 725 mmHg 96%
08:00 +10°C° 1.3 mm 5 mps 725 mmHg 96%
09:00 +10°C° 1.3 mm 5 mps 726 mmHg 95%
10:00 +10°C° 1.3 mm 6 mps 726 mmHg 95%
11:00 +10°C° 1.8 mm 6 mps 726 mmHg 95%
12:00 +10°C° 1.8 mm 5 mps 727 mmHg 95%
13:00 +10°C° 1.8 mm 5 mps 727 mmHg 96%
14:00 +10°C° 1.2 mm 5 mps 727 mmHg 95%
15:00 +10°C° 1.2 mm 5 mps 728 mmHg 95%
16:00 +10°C° 1.2 mm 5 mps 728 mmHg 94%
17:00 +10°C° 0.2 mm 5 mps 728 mmHg 94%
18:00 +11°C° 0.2 mm 4 mps 728 mmHg 94%
19:00 +11°C° 0.2 mm 4 mps 729 mmHg 94%
20:00 +11°C° 0.1 mm 3 mps 729 mmHg 94%
21:00 +11°C° 0.1 mm 3 mps 729 mmHg 94%
22:00 +12°C° 0.1 mm 2 mps 729 mmHg 94%
23:00 +10°C° 0 mm 2 mps 729 mmHg 94%

Tomorrow, 12 August, Wednesday

Time Temperature Precipitation Wind Pressure Humidity
00:00 +10°C° 0 mm 2 mps 729 mmHg 94%
01:00 +9°C° 0 mm 2 mps 729 mmHg 95%
02:00 +9°C° 0 mm 2 mps 730 mmHg 94%
03:00 +8°C° 0 mm 3 mps 730 mmHg 94%
04:00 +8°C° 0 mm 3 mps 730 mmHg 94%
05:00 +9°C° 0 mm 3 mps 730 mmHg 91%
06:00 +10°C° 0 mm 3 mps 730 mmHg 88%
07:00 +11°C° 0 mm 3 mps 730 mmHg 85%
08:00 +13°C° 0 mm 3 mps 731 mmHg 76%
09:00 +16°C° 0 mm 3 mps 731 mmHg 67%
10:00 +18°C° 0 mm 3 mps 731 mmHg 58%
11:00 +18°C° 0 mm 3 mps 731 mmHg 58%
12:00 +18°C° 0 mm 3 mps 731 mmHg 57%
13:00 +18°C° 0 mm 3 mps 731 mmHg 57%
14:00 +18°C° 0 mm 3 mps 731 mmHg 57%
15:00 +18°C° 0 mm 3 mps 731 mmHg 57%
16:00 +18°C° 0 mm 3 mps 731 mmHg 57%
17:00 +17°C° 0 mm 2 mps 731 mmHg 63%
18:00 +16°C° 0 mm 1 mps 732 mmHg 68%
19:00 +15°C° 0 mm 1 mps 732 mmHg 74%
20:00 +14°C° 0 mm 1 mps 732 mmHg 78%
21:00 +12°C° 0 mm 1 mps 732 mmHg 81%
22:00 +11°C° 0 mm 1 mps 732 mmHg 85%
23:00 +10°C° 0 mm 1 mps 733 mmHg 87%

Day after tomorrow, 13 August, Thursday

Time Temperature Precipitation Wind Pressure Humidity
00:00 +10°C° 0 mm 1 mps 733 mmHg 90%
01:00 +9°C° 0 mm 1 mps 733 mmHg 92%
02:00 +9°C° 0 mm 1 mps 733 mmHg 93%
03:00 +8°C° 0 mm 1 mps 733 mmHg 93%
04:00 +8°C° 0 mm 1 mps 733 mmHg 93%
05:00 +9°C° 0 mm 1 mps 734 mmHg 88%
06:00 +10°C° 0 mm 1 mps 734 mmHg 84%
07:00 +11°C° 0 mm 1 mps 734 mmHg 79%
08:00 +13°C° 0 mm 1 mps 734 mmHg 71%
09:00 +15°C° 0 mm 1 mps 734 mmHg 64%
10:00 +16°C° 0 mm 1 mps 734 mmHg 56%
11:00 +18°C° 0 mm 1 mps 734 mmHg 55%
12:00 +18°C° 0 mm 1 mps 734 mmHg 55%
13:00 +18°C° 0 mm 1 mps 734 mmHg 54%
14:00 +18°C° 0 mm 1 mps 734 mmHg 55%
15:00 +18°C° 0 mm 1 mps 734 mmHg 56%
16:00 +18°C° 0 mm 1 mps 733 mmHg 56%
17:00 +16°C° 0 mm 1 mps 733 mmHg 62%
18:00 +15°C° 0 mm 1 mps 733 mmHg 68%
19:00 +14°C° 0 mm 1 mps 733 mmHg 74%
20:00 +12°C° 0 mm 1 mps 733 mmHg 77%
21:00 +11°C° 0 mm 1 mps 733 mmHg 80%
22:00 +10°C° 0 mm 1 mps 733 mmHg 83%
23:00 +10°C° 0 mm 1 mps 733 mmHg 86%

14 August, Friday

Time Temperature Precipitation Wind Pressure Humidity
00:00 +9°C° 0 mm 1 mps 733 mmHg 88%
01:00 +9°C° 0 mm 1 mps 733 mmHg 91%
02:00 +8°C° 0 mm 1 mps 733 mmHg 91%
03:00 +8°C° 0 mm 1 mps 733 mmHg 92%
04:00 +8°C° 0 mm 1 mps 733 mmHg 93%
05:00 +9°C° 0 mm 1 mps 733 mmHg 87%
06:00 +10°C° 0 mm 2 mps 733 mmHg 82%
07:00 +12°C° 0 mm 2 mps 733 mmHg 77%
08:00 +13°C° 0 mm 2 mps 733 mmHg 72%
09:00 +14°C° 0 mm 3 mps 733 mmHg 66%
10:00 +16°C° 0 mm 3 mps 733 mmHg 61%
11:00 +17°C° 0 mm 3 mps 733 mmHg 59%
12:00 +18°C° 0 mm 3 mps 733 mmHg 58%
13:00 +19°C° 0 mm 3 mps 733 mmHg 56%
14:00 +18°C° 0 mm 3 mps 733 mmHg 59%
15:00 +18°C° 0 mm 3 mps 733 mmHg 62%
16:00 +17°C° 0 mm 3 mps 733 mmHg 65%
17:00 +16°C° 0.1 mm 3 mps 732 mmHg 71%
18:00 +14°C° 0.1 mm 3 mps 732 mmHg 76%
19:00 +13°C° 0.1 mm 3 mps 732 mmHg 82%
20:00 +13°C° 0.1 mm 3 mps 732 mmHg 83%
21:00 +13°C° 0.1 mm 2 mps 732 mmHg 84%
22:00 +13°C° 0.1 mm 2 mps 732 mmHg 85%
23:00 +13°C° 0.1 mm 2 mps 732 mmHg 86%

15 August, Saturday

Time Temperature Precipitation Wind Pressure Humidity
00:00 +12°C° 0.1 mm 2 mps 732 mmHg 87%
01:00 +12°C° 0.1 mm 2 mps 732 mmHg 88%
02:00 +11°C° 0 mm 3 mps 732 mmHg 88%
03:00 +11°C° 0 mm 3 mps 732 mmHg 87%
04:00 +10°C° 0 mm 3 mps 732 mmHg 87%
05:00 +10°C° 0.1 mm 3 mps 732 mmHg 87%
06:00 +10°C° 0.1 mm 3 mps 732 mmHg 87%
07:00 +10°C° 0.1 mm 3 mps 732 mmHg 87%
08:00 +10°C° 0.3 mm 3 mps 732 mmHg 87%
09:00 +10°C° 0.3 mm 3 mps 732 mmHg 87%
10:00 +11°C° 0.3 mm 3 mps 732 mmHg 87%
11:00 +11°C° 0.1 mm 3 mps 732 mmHg 85%
12:00 +12°C° 0.1 mm 3 mps 732 mmHg 82%
13:00 +13°C° 0.1 mm 3 mps 732 mmHg 79%
14:00 +14°C° 0 mm 3 mps 732 mmHg 75%
15:00 +14°C° 0 mm 3 mps 732 mmHg 71%
16:00 +16°C° 0 mm 3 mps 732 mmHg 66%
17:00 +14°C° 0 mm 3 mps 732 mmHg 71%
18:00 +15°C° 0 mm 2 mps 732 mmHg 75%
19:00 +14°C° 0 mm 2 mps 732 mmHg 80%
20:00 +13°C° 0.1 mm 2 mps 732 mmHg 81%
21:00 +13°C° 0.1 mm 2 mps 732 mmHg 83%
22:00 +13°C° 0.1 mm 2 mps 732 mmHg 85%
23:00 +12°C° 0 mm 2 mps 732 mmHg 86%

16 August, Sunday

Time Temperature Precipitation Wind Pressure Humidity
00:00 +12°C° 0 mm 2 mps 732 mmHg 87%
01:00 +10°C° 0 mm 2 mps 732 mmHg 88%
02:00 +10°C° 0 mm 2 mps 732 mmHg 90%
03:00 +10°C° 0 mm 3 mps 732 mmHg 93%
04:00 +9°C° 0 mm 3 mps 732 mmHg 96%
05:00 +9°C° 0 mm 3 mps 732 mmHg 96%
06:00 +9°C° 0 mm 3 mps 732 mmHg 95%
07:00 +9°C° 0 mm 3 mps 732 mmHg 95%
08:00 +10°C° 0 mm 3 mps 732 mmHg 91%
09:00 +11°C° 0 mm 3 mps 732 mmHg 87%
10:00 +12°C° 0 mm 3 mps 732 mmHg 83%
11:00 +13°C° 0 mm 3 mps 732 mmHg 82%
12:00 +13°C° 0 mm 3 mps 732 mmHg 81%
13:00 +14°C° 0 mm 3 mps 732 mmHg 80%
14:00 +13°C° 0.1 mm 3 mps 732 mmHg 83%
15:00 +13°C° 0.1 mm 3 mps 733 mmHg 86%
16:00 +12°C° 0.1 mm 3 mps 733 mmHg 89%
17:00 +12°C° 0.2 mm 3 mps 733 mmHg 91%
18:00 +11°C° 0.2 mm 3 mps 733 mmHg 93%
19:00 +11°C° 0.2 mm 4 mps 733 mmHg 95%
20:00 +10°C° 0.7 mm 3 mps 732 mmHg 96%
21:00 +10°C° 0.7 mm 3 mps 732 mmHg 96%
22:00 +10°C° 0.7 mm 3 mps 732 mmHg 97%
23:00 +10°C° 0.3 mm 3 mps 732 mmHg 97%
Show more